"Pseudo-MPEC" for P10SDDu

Created 2019 Oct 21 3:07:33 UT using Find_Orb

Click here for an explanation of pseudo-MPECs

 
 Astrometry: 
     P10SDDu  C2019 10 09)MKmAstrometry)js9+V-H94_hi#GCywE-5bi.mr[rf;!05nokU^F51
     P10SDDu  C2019 10 09iWM2ZtV3qU@xk\gS*9hY)Xir9d\1%hO8JHjAredacted;Wds!`U+F51
     P10SDDu  C2019 10 09Twa3'sWyp=6'@;IIclick-%sUo;gZ4i5Oyt)v[p#/MW/CNE$H:'rF51
     P10SDDu  C2019 10 09H-kW`D6O4KX3y;/[1gD_xS\R;OlB!nOFL,apBj^HHqGc[\NZ33J?F51
     P10SDDu KC2019 10 11e/herefadZfor71`explanationwLWs;AgC[HY/$:w$'G^!fHAM2L01
     P10SDDu KC2019 10 11Uw;#M5?B07c-reA(i5Ymp,qlTls@H8-Akv;g-RQnK5-,$fSuF_FlL01
     P10SDDu IC2019 10 1199eZaWR%eMJaB7Huhq_`akeMD`M*,?wE^1`=?[kiv3[ybIpbbVISL01
     P10SDDu  C2019 10 11.41854 05 47 41.20 +07 18 52.7    ~ABAq       VNEOCPI52
     P10SDDu  C2019 10 11.42521 05 47 41.42 +07 19 00.1    ~ABAq       VNEOCPI52

Station data:
(F51) Pan-STARRS 1, Haleakala  (N20.707235 W156.255910)  US/Hawaii.
   Observers N. Primak, A. Schultz, S. Watters, J. Thiel, T. Goggia. Measurer
   PS1 Science Consortium. 1.8-m Ritchey-Chrétien + CCD.
(I52) Steward Observatory, Mt. Lemmon Station  (N32.442547 W110.788920)
   US/Arizona.  Observers T. A. Pruyne, B. M. Africano, E. J. Christensen, G.
   A. Farneth, D. C. Fuls, A. R. Gibbs, A. D. Grauer, H. Groeller, J. A.
   Johnson, R. A. Kowalski, S. M. Larson, G. J. Leonard, D. Rankin, R. L.
   Seaman, F. C. Shelly. 1.0-m reflector + CCD.
(L01) Višnjan Observatory, Tičan  (N45.290900 E13.749300)  Croatia.
   Observers K. Korlević, E. Pettarin. Measurer E. Pettarin. 1.0-m f/2.9
   reflector + CCD.

Orbital elements:  P10SDDu
   Perihelion 2019 Aug 11.264785 +/- 34.6 TT =  6:21:17 (JD 2458706.764785)
Epoch 2019 Oct 11.0 TT = JDT 2458767.5   Earth MOID: 0.7815   AutoNEOCP
M  13.43029180 +/- 10               (J2000 ecliptic)
n   0.22112857 +/- 0.104            Peri.  310.18604 +/- 21
a   2.70835839 +/- 0.847            Node    68.03398 +/- 1.4
e   0.3867673 +/- 0.15              Incl.   36.21899 +/- 5.5
P   4.46                   H 19.0   G  0.15   U 11.2  
q 1.66085367 +/- 0.216    Q 3.75586311 +/- 1.98
From 9 observations 2019 Oct. 9-11 (43.7 hr); mean residual 0".25
Residuals in arcseconds: 
191009 F51  .02+  .07-    191009 F51  .09-  .05+    191011 L01  .18-  .10+    
191009 F51  .03-  .04-    191011 L01  .31+  .03-    191011 I52  .73-  .07+    
191009 F51  .09+  .06+    191011 L01  .05-  .11-    191011 I52  .66+  .05-    

Ephemerides (geocentric):
Date (UTC) HH   RA              Dec         delta   r     elong  mag " sig PA
---- -- -- --  -------------   -----------  ------ ------ -----  --- ---- ---
2019 10 21 03  05 49 07.093   +10 37 11.25  1.0453 1.7594 119.1 21.6  275  80
2019 10 21 04  05 49 06.902   +10 38 06.78  1.0450 1.7595 119.1 21.6  278  80
2019 10 21 05  05 49 06.707   +10 39 02.36  1.0446 1.7596 119.2 21.6  280  80
2019 10 21 06  05 49 06.506   +10 39 57.97  1.0443 1.7597 119.2 21.6  282  80
2019 10 21 07  05 49 06.300   +10 40 53.63  1.0440 1.7598 119.2 21.6  284  80
2019 10 21 08  05 49 06.090   +10 41 49.32  1.0437 1.7599 119.3 21.6  287  80
2019 10 21 09  05 49 05.874   +10 42 45.06  1.0434 1.7601 119.3 21.6  289  80
2019 10 21 10  05 49 05.653   +10 43 40.83  1.0431 1.7602 119.4 21.6  291  80
2019 10 21 11  05 49 05.427   +10 44 36.65  1.0428 1.7603 119.4 21.6  293  80
2019 10 21 12  05 49 05.195   +10 45 32.50  1.0425 1.7604 119.5 21.6  296  80
2019 10 21 13  05 49 04.959   +10 46 28.40  1.0422 1.7605 119.5 21.6  298  80
2019 10 21 14  05 49 04.718   +10 47 24.33  1.0419 1.7606 119.5 21.6  300  80
2019 10 21 15  05 49 04.471   +10 48 20.31  1.0416 1.7607 119.6 21.6  303  80
2019 10 21 16  05 49 04.219   +10 49 16.32  1.0413 1.7608 119.6 21.6  305  80
2019 10 21 17  05 49 03.962   +10 50 12.38  1.0410 1.7609 119.7 21.6  307  80
2019 10 21 18  05 49 03.701   +10 51 08.47  1.0407 1.7610 119.7 21.6  310  80
2019 10 21 19  05 49 03.433   +10 52 04.61  1.0404 1.7612 119.8 21.6  312  80
2019 10 21 20  05 49 03.161   +10 53 00.79  1.0401 1.7613 119.8 21.6  315  80
2019 10 21 21  05 49 02.884   +10 53 57.00  1.0398 1.7614 119.8 21.6  317  80
2019 10 21 22  05 49 02.601   +10 54 53.26  1.0395 1.7615 119.9 21.6  319  80
2019 10 21 23  05 49 02.314   +10 55 49.56  1.0392 1.7616 119.9 21.6  322  80
2019 10 22 00  05 49 02.021   +10 56 45.89  1.0389 1.7617 120.0 21.6  324  80
2019 10 22 01  05 49 01.723   +10 57 42.27  1.0386 1.7618 120.0 21.6  327  80
2019 10 22 02  05 49 01.420   +10 58 38.69  1.0383 1.7619 120.1 21.6  329  80
2019 10 22 03  05 49 01.111   +10 59 35.14  1.0380 1.7620 120.1 21.6  332  80
2019 10 22 04  05 49 00.798   +11 00 31.64  1.0377 1.7622 120.1 21.6  334  80
2019 10 22 05  05 49 00.479   +11 01 28.18  1.0374 1.7623 120.2 21.6  336  80
2019 10 22 06  05 49 00.155   +11 02 24.76  1.0371 1.7624 120.2 21.6  339  80
2019 10 22 07  05 48 59.826   +11 03 21.38  1.0368 1.7625 120.3 21.6  341  80
2019 10 22 08  05 48 59.492   +11 04 18.04  1.0365 1.7626 120.3 21.6  344  80
2019 10 22 09  05 48 59.153   +11 05 14.74  1.0362 1.7627 120.4 21.6  346  80
2019 10 22 10  05 48 58.808   +11 06 11.48  1.0359 1.7628 120.4 21.6  349  80
2019 10 22 11  05 48 58.458   +11 07 08.26  1.0356 1.7629 120.5 21.6  351  80
2019 10 22 12  05 48 58.103   +11 08 05.08  1.0353 1.7630 120.5 21.6  354  80
2019 10 22 13  05 48 57.743   +11 09 01.94  1.0350 1.7632 120.5 21.6  356  80
2019 10 22 14  05 48 57.378   +11 09 58.84  1.0347 1.7633 120.6 21.6  359  80
2019 10 22 15  05 48 57.007   +11 10 55.79  1.0344 1.7634 120.6 21.6  362  80
2019 10 22 16  05 48 56.631   +11 11 52.77  1.0342 1.7635 120.7 21.6  364  80
2019 10 22 17  05 48 56.250   +11 12 49.79  1.0339 1.7636 120.7 21.6  367  80
2019 10 22 18  05 48 55.864   +11 13 46.85  1.0336 1.7637 120.8 21.6  369  80
2019 10 22 19  05 48 55.472   +11 14 43.96  1.0333 1.7638 120.8 21.6  372  80
2019 10 22 20  05 48 55.076   +11 15 41.10  1.0330 1.7639 120.8 21.6  375  80
2019 10 22 21  05 48 54.674   +11 16 38.29  1.0327 1.7641 120.9 21.6  377  80
2019 10 22 22  05 48 54.266   +11 17 35.51  1.0324 1.7642 120.9 21.6  380  80
2019 10 22 23  05 48 53.854   +11 18 32.78  1.0321 1.7643 121.0 21.6  382  80
2019 10 23 00  05 48 53.436   +11 19 30.09  1.0318 1.7644 121.0 21.6  385  80
2019 10 23 01  05 48 53.013   +11 20 27.44  1.0315 1.7645 121.1 21.6  388  80
2019 10 23 02  05 48 52.585   +11 21 24.82  1.0312 1.7646 121.1 21.6  390  80